Regional Weather Roundup
Issued by NWS

Home | Current Version | Previous Version | Graphics & Text | Print | Product List | Glossary Off
Versions: 1 2 3 4 5 6 7 8 9 10 11 12 13 14 15 16 17 18 19 20 21 22 23 24 25 26 27 28 29 30 31 32 33 34 35 36 37 38 39 40 41 42 43 44 45 46 47 48 49 50

000
ASUS43 KTOP 240108
RWRKS

WEATHER ROUNDUP FOR KANSAS
NATIONAL WEATHER SERVICE GOODLAND KS
800 PM CDT TUE AUG 23 2016

NOTE:  "FAIR" INDICATES FEW OR NO CLOUDS BELOW 12,000 FEET WITH NO
SIGNIFICANT WEATHER AND/OR OBSTRUCTIONS TO VISIBILITY.

KSZ001>006-013>018-027>032-041>047-240200-
NORTHWEST KANSAS

CITY           SKY/WX    TMP DP  RH WIND       PRES   REMARKS
GOODLAND       CLEAR     81  44  27 N7        29.94R
HAYS           CLEAR     90  55  31 S9        29.79S
HILL CITY      CLEAR     86  66  51 N7        29.81R
RUSSELL        CLEAR     89  67  47 S20G29    29.79R
$$

KSZ061>065-074>080-084>089-240200-
SOUTHWEST KANSAS

CITY           SKY/WX    TMP DP  RH WIND       PRES   REMARKS
DODGE CITY     CLEAR     89  51  27 S7        29.85S
GARDEN CITY    CLEAR     89  53  29 S5        29.85S
GREAT BEND     CLOUDY    88  64  45 S23G31    29.82R
LIBERAL        PTCLDY    91  46  21 SW8       29.88S
PRATT          CLEAR     83  67  56 S20       29.87R
$$

KSZ066>073-081>083-090>101-240200-
SOUTHEAST KANSAS

CITY           SKY/WX    TMP DP  RH WIND       PRES   REMARKS
CHANUTE        PTCLDY    81  71  71 S10       29.94F
COFFEYVILLE    CLEAR     84  70  62 S13G21    29.95S
HUTCHINSON     CLOUDY    88  71  57 S21G29    29.85S
MEDICINE LODGE   N/A     88  68  51 S20G26    29.85S
NEWTON         CLOUDY    83  72  69 S18       29.88F
PARSONS        PTCLDY    83  70  64 S6        29.96F
WICHITA INTL   CLOUDY    86  71  60 S22G30    29.87F
WICHITA JABRA  CLOUDY    83  73  72 S17G25    29.89R
WICHITA MCCONL CLOUDY    83  72  68 S18       29.89S
WINFIELD       CLOUDY    83  72  69 S14       29.93R
$$

KSZ007>012-019>026-033>040-048>060-102>105-240200-
NORTHEAST KANSAS

CITY           SKY/WX    TMP DP  RH WIND       PRES   REMARKS
CONCORDIA      CLOUDY    76  69  79 S16G25    29.81F
EMPORIA        CLEAR     80  72  76 S13       29.92R
LAWRENCE       CLOUDY    82  72  71 S12       29.93R
MANHATTAN      CLEAR     84  72  67 S15G22    29.85R
MARYSVILLE     CLOUDY    82  72  69 S13G18    29.84S
OLATHE IND     CLOUDY    81  72  74 S10       29.97R
OLATHE EXE     CLOUDY    80  71  74 S10       29.97R
SALINA         CLEAR     89  71  55 S23G29    29.81S HX  95
TOPEKA BILLARD MOCLDY    83  71  67 S16       29.91R
TOPEKA FORBES  PTCLDY    83  72  69 S15       29.91R
$$




USA.gov is the U.S. government's official web portal to all federal, state and local government web resources and services.